#timestamp,LO_Frequency,Hit 
1503918015.6,286047001.6,N
1503918035.4,286046998.2,N
1503918055.3,286046999.3,N
1503918075.1,286046999.3,N
1503918076.0,286046999.3,N
1503918095.8,286046997.0,N
1503918115.7,286047001.0,N
1503918135.5,286047000.4,N
1503918155.3,286047002.3,N
1503918175.1,286047000.2,N
1503918195.9,286047002.3,N
1503918215.7,286047001.6,N
1503918235.5,286047004.6,N
1503918255.4,286047007.0,N
1503918275.2,286047010.5,N
1503918295.0,286047010.4,N
1503918295.9,286047010.4,N
1503918315.8,286047008.2,N
1503918335.6,286047010.7,N
1503918355.4,286047009.6,N
1503918375.3,286047006.2,N
1503918395.1,286047005.0,N
1503918396.0,286047005.0,N
1503918415.8,286047004.4,N
1503918435.7,286046999.7,N
1503918455.5,286047001.8,N
1503918475.3,286047005.8,N
1503918495.2,286047006.9,N
1503918515.9,286047005.1,N
1503918535.7,286047004.5,N
1503918555.5,286047009.0,N
1503918575.4,286047008.5,N
1503918595.2,286047008.6,N
1503918615.0,286047009.2,N
1503918615.9,286047009.2,N
1503918635.8,286047006.8,N
1503918655.6,286047007.2,N
1503918675.4,286047008.8,N
1503918695.3,286047008.5,N
1503918715.1,286047006.5,N
1503918716.0,286047006.5,N
1503918735.8,286047004.9,N
1503918755.7,286047004.9,N
1503918775.5,286047007.5,N
1503918795.3,286047001.3,N
1503918815.2,286047001.3,N
1503918835.9,286047009.0,P
1503918855.7,286047002.1,N
1503918875.6,286047001.3,N
1503918895.4,286047001.8,N
1503918915.2,286046998.1,N
1503918935.1,286046998.6,N
1503918936.0,286046998.6,N
1503918955.8,286046999.5,N
1503918975.6,286046995.6,N
1503918995.5,286046996.2,N
1503919015.3,286046994.4,N
1503919035.1,286046992.5,N
1503919055.8,286046991.4,N
1503919075.7,286046989.6,N
1503919095.5,286046989.3,N
1503919115.3,286046992.0,N
1503919135.2,286046992.2,N
1503919155.9,286046995.5,N
1503919175.7,286046997.6,N
1503919195.6,286046997.2,N
1503919215.4,286047001.0,N
1503919235.2,286046999.9,N
1503919255.1,286046998.3,N
1503919256.0,286046998.3,N
1503919275.8,286047000.1,N
1503919295.6,286047002.8,N
1503919315.4,286047001.1,N
1503919335.3,286047001.7,N
1503919355.1,286046999.7,N
1503919375.8,286047000.6,N
1503919395.7,286046997.3,N
1503919415.5,286046997.6,N
1503919435.3,286046995.2,N
1503919455.2,286046995.3,N
1503919475.9,286046994.1,N
1503919495.7,286046995.1,N
1503919515.6,286046996.7,N
1503919535.4,286046996.9,N
1503919555.2,286046996.7,N
1503919575.1,286046996.8,N
1503919576.0,286046996.8,N
1503919595.8,286046995.6,N
1503919615.6,286046995.1,N
1503919635.5,286046997.8,N
1503919655.3,286046995.3,N
1503919675.1,286046994.4,N
1503919695.9,286046990.4,P
1503919715.7,286046996.2,N
1503919735.5,286046996.2,N
1503919755.4,286046993.4,N
1503919775.2,286046997.2,N
1503919795.0,286046999.5,N
1503919795.9,286046999.5,N
1503919815.7,286046997.7,N
1503919835.6,286046999.4,N
1503919855.4,286046998.0,N
1503919875.2,286046995.1,N
1503919895.1,286046996.5,N
1503919896.0,286046996.5,N
1503919915.8,286046995.1,N
1503919935.6,286046993.6,N
1503919955.5,286046992.9,N
1503919975.3,286046991.8,P
1503919995.1,286046995.4,N
1503920015.9,286046994.9,N
1503920035.7,286047000.8,N
1503920055.5,286047004.3,N
1503920075.4,286047003.8,N
1503920095.2,286047001.6,N
1503920115.0,286047001.8,N
1503920115.9,286047001.8,N
1503920135.8,286047005.9,N
1503920155.6,286047005.0,N
1503920175.4,286047005.3,N
1503920195.3,286047005.0,N
1503920215.1,286047008.5,N
1503920216.0,286047008.5,N
1503920235.8,286047008.1,N
1503920255.7,286047012.4,N
1503920275.5,286047012.0,N
1503920295.3,286047008.2,N
1503920315.2,286047007.8,N
1503920335.9,286047006.4,N
1503920355.7,286047006.8,N
1503920375.6,286047008.9,N
1503920395.4,286047009.0,N
1503920415.2,286047008.0,N
1503920435.0,286047009.2,N
1503920435.9,286047009.2,N
1503920455.8,286047009.5,N
1503920475.6,286047012.4,N
1503920495.4,286047009.5,N
1503920515.3,286047012.4,N
1503920535.1,286047011.9,N
1503920555.8,286047013.3,P
1503920575.7,286047006.8,N
1503920595.5,286047006.4,N
1503920615.3,286047007.7,N
1503920635.2,286047010.6,P
1503920655.0,286046998.2,N
1503920655.9,286046998.2,N
1503920675.8,286046997.1,N
1503920695.6,286046996.8,N
1503920715.4,286046999.6,N
1503920735.3,286046993.5,N
1503920755.1,286046994.9,N
1503920756.0,286046994.9,N
1503920775.8,286046995.8,N
1503920795.6,286046997.6,N
1503920815.5,286046998.5,N
1503920835.3,286047000.5,N
1503920855.1,286046999.2,N
1503920875.9,286046998.4,N
1503920895.6,286046998.3,N
1503920915.5,286047004.3,N
1503920935.3,286046999.3,N
1503920955.1,286046997.1,N
1503920975.9,286046995.2,N
1503920995.7,286046996.3,N
1503921015.5,286046995.3,N
1503921035.4,286046992.6,N
1503921055.2,286046991.1,N
1503921075.0,286046989.5,N
1503921075.9,286046989.5,N
1503921095.7,286046988.1,N
1503921115.6,286046985.6,N
1503921135.4,286046988.1,N
1503921155.2,286046985.8,N
1503921175.1,286046985.8,N
1503921176.0,286046985.8,N
1503921195.8,286046985.7,N
1503921215.6,286046989.4,N
1503921235.5,286046987.7,N
1503921255.3,286046986.4,N
1503921275.1,286046982.6,P
1503921295.9,286046989.6,N
1503921315.7,286046988.6,N
1503921335.5,286046990.4,N
1503921355.4,286046993.8,N
1503921375.2,286046992.3,N
1503921395.0,286046990.6,N
1503921395.9,286046990.6,N
1503921415.8,286046990.8,N
1503921435.6,286046989.4,P
1503921455.4,286046998.4,P
1503921475.3,286046997.2,N
1503921495.1,286046996.5,N
1503921515.8,286046997.7,N
1503921535.7,286046995.2,N
1503921555.5,286046995.1,N
1503921575.3,286046998.3,N
1503921595.2,286046999.3,N
